EW6866 Weather Reports


time (UTC)temp
F
wind
direction
speed
knots
gust
knots
rain 1hr
in
rain 24hr
in
rain mn
in
humidity
%
barometer
mb
20260902021505 82 0 0.0 0.0 0.00 0.00 0.00 87 1015.4
20260902020005 82 240 0.0 1.7 0.00 0.00 0.00 87 1015.1
20260902014525 82 215 0.0 2.6 0.00 0.00 0.00 87 1014.8
20260902013006 83 243 0.0 3.5 0.00 0.00 0.00 86 1014.7
20260902011526 83 222 0.0 2.6 0.00 0.00 0.00 87 1014.6
20260902010005 83 176 0.0 2.6 0.00 0.00 0.00 86 1014.7
20260902004505 84 260 0.0 1.7 0.00 0.00 0.00 85 1014.5
20260902003004 84 266 0.0 0.9 0.00 0.00 0.00 84 1014.6
20260902001505 85 253 0.0 4.3 0.00 0.00 0.00 82 1014.4
20260902000026 85 253 0.0 2.6 0.00 0.00 0.00 81 1014.4
20260901234505 86 260 0.0 1.7 0.00 0.00 0.00 79 1014.4
20260901233004 87 245 0.9 4.3 0.00 0.00 0.00 78 1014.4
20260901231526 88 194 0.0 3.5 0.00 0.00 0.00 77 1014.5
20260901230005 89 150 0.0 0.9 0.00 0.00 0.00 76 1014.7
20260901224526 89 281 0.0 0.9 0.00 0.00 0.00 76 1014.9
20260901223006 90 272 0.0 0.9 0.00 0.00 0.00 75 1014.8
20260901221504 90 229 0.0 0.9 0.00 0.00 0.00 74 1014.7
20260901220004 91 210 0.0 0.9 0.00 0.00 0.00 72 1014.8
20260901214505 92 204 0.0 0.9 0.00 0.00 0.00 68 1014.8
20260901213004 93 166 0.0 1.7 0.00 0.00 0.00 64 1014.7
20260901211504 94 237 0.0 3.5 0.00 0.00 0.00 62 1014.7
20260901210004 95 160 0.9 2.6 0.00 0.00 0.00 61 1014.6
20260901204504 95 253 0.0 4.3 0.00 0.00 0.00 61 1014.7
20260901203004 96 218 0.0 2.6 0.00 0.00 0.00 59 1014.8
20260901201504 96 204 0.0 1.7 0.00 0.00 0.00 58 1014.9
20260901200004 95 262 0.9 3.5 0.00 0.00 0.00 60 1015.0
20260901194504 96 158 0.0 4.3 0.00 0.00 0.00 60 1015.1
20260901193005 96 167 0.0 2.6 0.00 0.00 0.00 58 1015.2
20260901191504 95 175 0.9 4.3 0.00 0.00 0.00 60 1015.3
20260901190004 95 178 0.9 4.3 0.00 0.00 0.00 60 1015.3
20260901184505 96 156 0.0 4.3 0.00 0.00 0.00 60 1015.4
20260901183004 95 214 0.0 4.3 0.00 0.00 0.00 63 1015.6
20260901181504 95 202 0.9 4.3 0.00 0.00 0.00 63 1015.5
20260901180005 95 227 0.0 1.7 0.00 0.00 0.00 63 1015.7
20260901174525 94 231 0.9 3.5 0.00 0.00 0.00 64 1015.7
20260901173004 94 185 0.9 4.3 0.00 0.00 0.00 64 1015.8
20260901171504 94 158 0.9 4.3 0.00 0.00 0.00 63 1015.9
20260901170004 94 166 0.0 3.5 0.00 0.00 0.00 65 1016.0
20260901164504 93 128 0.0 0.9 0.00 0.00 0.00 67 1016.1
20260901163004 92 167 0.9 1.7 0.00 0.00 0.00 68 1016.3
20260901161504 93 141 0.0 1.7 0.00 0.00 0.00 66 1016.6
20260901160004 92 139 0.0 2.6 0.00 0.00 0.00 66 1016.8
20260901154504 92 167 0.0 3.5 0.00 0.00 0.00 70 1017.0
20260901153004 91 138 0.0 3.5 0.00 0.00 0.00 70 1017.2
20260901151504 90 156 0.0 4.3 0.00 0.00 0.00 73 1017.2
20260901150004 89 169 0.0 3.5 0.00 0.00 0.00 74 1017.3
20260901144504 87 148 0.9 3.5 0.00 0.00 0.00 75 1017.2
20260901143004 86 149 0.0 1.7 0.00 0.00 0.00 79 1017.2
20260901141504 85 157 0.0 2.6 0.00 0.00 0.00 81 1017.2
20260901140004 84 164 0.0 3.5 0.00 0.00 0.00 83 1017.1
20260901134504 83 156 0.0 2.6 0.00 0.00 0.00 85 1017.3
20260901133004 82 175 0.0 1.7 0.00 0.00 0.00 87 1017.3
20260901131525 81 183 0.0 3.5 0.00 0.00 0.00 89 1017.4
20260901130003 80 157 0.0 0.9 0.00 0.00 0.00 92 1017.4
20260901124525 79 187 0.0 1.7 0.00 0.00 0.00 95 1017.3
20260901123004 78 157 0.0 0.9 0.00 0.00 0.00 98 1017.2
20260901121504 77 132 0.0 0.9 0.00 0.00 0.00 99 1017.2
20260901120004 76 0 0.0 0.0 0.00 0.00 0.00 99 1017.0
20260901114503 75 0 0.0 0.0 0.00 0.00 0.00 99 1017.0
20260901113004 75 0 0.0 0.0 0.00 0.00 0.00 98 1016.8
20260901111504 74 0 0.0 0.0 0.00 0.00 0.00 98 1016.7
20260901110003 74 0 0.0 0.0 0.00 0.00 0.00 98 1016.6
20260901104503 74 0 0.0 0.0 0.00 0.00 0.00 98 1016.6
20260901103004 74 0 0.0 0.0 0.00 0.00 0.00 97 1016.4
20260901101504 74 0 0.0 0.0 0.00 0.00 0.00 98 1016.4
20260901100024 74 0 0.0 0.0 0.00 0.00 0.00 98 1016.4
20260901094504 74 0 0.0 0.0 0.00 0.00 0.00 97 1016.4
20260901093004 74 0 0.0 0.0 0.00 0.00 0.00 97 1016.5
20260901091503 75 0 0.0 0.0 0.00 0.00 0.00 97 1016.5
20260901090003 75 0 0.0 0.0 0.00 0.00 0.00 97 1016.6
20260901084504 75 0 0.0 0.0 0.00 0.00 0.00 97 1016.6
20260901083003 75 0 0.0 0.0 0.00 0.00 0.00 97 1016.6
20260901081503 75 0 0.0 0.0 0.00 0.00 0.00 97 1016.8
20260901080003 75 0 0.0 0.0 0.00 0.00 0.00 97 1016.8
20260901074527 75 0 0.0 0.0 0.00 0.00 0.00 96 1016.9
20260901073005 75 0 0.0 0.0 0.00 0.00 0.00 96 1017.0
20260901071526 75 0 0.0 0.0 0.00 0.00 0.00 96 1017.1
20260901070027 75 0 0.0 0.0 0.00 0.00 0.00 96 1017.2
20260901064526 75 0 0.0 0.0 0.00 0.00 0.00 96 1017.3
20260901063026 76 0 0.0 0.0 0.00 0.00 0.00 95 1017.2
20260901061505 76 0 0.0 0.0 0.00 0.00 0.00 95 1017.3
20260901060005 76 0 0.0 0.0 0.00 0.00 0.00 95 1017.5
20260901054505 76 0 0.0 0.0 0.00 0.00 0.00 95 1017.6
20260901053005 76 0 0.0 0.0 0.00 0.00 0.00 94 1017.7
20260901051526 76 0 0.0 0.0 0.00 0.00 0.00 94 1017.6
20260901050026 77 0 0.0 0.0 0.00 0.00 0.00 94 1017.7
20260901044506 77 0 0.0 0.0 0.00 0.00 0.00 93 1017.5
20260901043005 77 0 0.0 0.0 0.00 0.00 0.00 92 1017.5
20260901041505 78 0 0.0 0.0 0.00 0.00 0.00 92 1017.5
20260901040007 78 0 0.0 0.0 0.00 0.00 0.00 91 1017.5
20260901034505 78 0 0.0 0.0 0.00 0.00 0.00 90 1017.4
20260901033005 79 224 0.0 0.9 0.00 0.00 0.00 89 1017.4
20260901031505 79 153 0.0 1.7 0.00 0.00 0.00 88 1017.5
20260901030005 80 238 0.0 0.9 0.00 0.00 0.00 87 1017.4
20260901024505 80 265 0.0 2.6 0.00 0.00 0.00 86 1017.7
20260901023026 80 270 0.0 1.7 0.00 0.00 0.00 86 1017.6